Weather History for KAXS - December, 2013

Change the Weather History Date:

Thursday, December 12, 2013

  Actual Average (KLTS) Record (KLTS)
Temperature  
Mean Temperature 30 °F -  
Max Temperature 39 °F 52 °F 66 °F (2006)
Min Temperature 21 °F 27 °F 15 °F (2000)
Degree Days  
Heating Degree Days 35    
Moisture  
Dew Point 25 °F    
Average Humidity 79    
Maximum Humidity 89    
Minimum Humidity 66    
Precipitation  
Precipitation 0.05 in - - ()
Sea Level Pressure  
Sea Level Pressure 30.44 in    
Wind  
Wind Speed 3 mph (South)    
Max Wind Speed 13 mph    
Max Gust Speed -    
Visibility 9 miles    
Events Rain    
Averages and records for this station are not official NWS values.
T = Trace of Precipitation, MM = Missing Value Source: NWS Daily Summary

Daily Weather History Graph

Daily Weather History Graph

Search for Another Location

Airport or City:

Trip Planner

Search our weather history database for the weather conditions in past years. The results will help you decide how hot, cold, wet, or windy it might be!

Date:

Astronomy

Dec. 12, 2013 Rise Set
Actual Time 7:35 AM CST 5:27 PM CST
Civil Twilight 7:07 AM CST 5:55 PM CST
Nautical Twilight 6:35 AM CST 6:26 PM CST
Astronomical Twilight 6:05 AM CST 6:57 PM CST
Moon 2:27 PM CST (12/12) 3:08 AM CST (12/12)
Length of Visible Light 10h 47m
Length of Day
9h 51m
Waxing Gibbous, 80% of the Moon is Illuminated
Dec 12
Waxing Gibbous
Dec 17
Full
Dec 25
Last Quarter
Jan 1
New
Jan 7
First Quarter

Hourly Weather History & Observations

Time (CST) Temp. Windchill Dew Point Humidity Pressure Visibility Wind Dir Wind Speed Gust Speed Precip Events Conditions
12:15 AM 24.1 °F - 20.8 °F 87% 30.62 in 10.0 mi Calm Calm - N/A   Clear
12:35 AM 23.9 °F - 20.8 °F 88% 30.62 in 10.0 mi Calm Calm - N/A   Clear
12:55 AM 24.1 °F - 20.8 °F 87% 30.62 in 10.0 mi Calm Calm - N/A   Clear
1:15 AM 23.9 °F - 20.8 °F 88% 30.61 in 10.0 mi Calm Calm - N/A   Clear
1:35 AM 23.4 °F - 20.3 °F 88% 30.61 in 10.0 mi Calm Calm - N/A   Clear
1:55 AM 23.5 °F - 20.5 °F 88% 30.61 in 10.0 mi Calm Calm - N/A   Clear
2:15 AM 23.5 °F - 20.5 °F 88% 30.60 in 10.0 mi Calm Calm - N/A   Clear
2:35 AM 23.5 °F - 20.7 °F 89% 30.60 in 10.0 mi Calm Calm - N/A   Clear
2:55 AM 23.7 °F - 20.1 °F 86% 30.60 in 10.0 mi Calm Calm - N/A   Clear
3:15 AM 22.6 °F - 19.8 °F 89% 30.60 in 10.0 mi Calm Calm - N/A   Clear
3:35 AM 23.2 °F - 20.5 °F 89% 30.60 in 10.0 mi Calm Calm - N/A   Clear
3:55 AM 23.7 °F - 20.3 °F 87% 30.60 in 10.0 mi Calm Calm - N/A   Clear
4:15 AM 24.3 °F - 20.3 °F 85% 30.57 in 10.0 mi Calm Calm - N/A   Clear
4:35 AM 23.0 °F - 19.4 °F 86% 30.57 in 10.0 mi Calm Calm - N/A   Clear
4:55 AM 22.8 °F - 19.4 °F 87% 30.56 in 10.0 mi Calm Calm - N/A   Clear
5:15 AM 23.5 °F - 19.9 °F 86% 30.55 in 10.0 mi Calm Calm - N/A   Clear
5:35 AM 23.2 °F 17.2 °F 19.6 °F 86% 30.55 in 10.0 mi WSW 4.6 mph - N/A   Clear
5:50 AM 21.9 °F 17.2 °F 18.3 °F 86% 30.55 in 10.0 mi West 3.5 mph - N/A   Clear
6:15 AM 22.1 °F - 18.5 °F 86% 30.55 in 10.0 mi Calm Calm - N/A   Clear
6:35 AM 21.7 °F - 18.3 °F 87% 30.55 in 10.0 mi Calm Calm - N/A   Clear
6:55 AM 22.5 °F - 18.9 °F 86% 30.55 in 10.0 mi Calm Calm - N/A   Clear
7:15 AM 21.7 °F - 18.3 °F 87% 30.55 in 10.0 mi Calm Calm - N/A   Clear
7:35 AM 22.1 °F - 18.3 °F 85% 30.55 in 10.0 mi Calm Calm - N/A   Clear
7:55 AM 23.0 °F - 19.0 °F 85% 30.56 in 10.0 mi Calm Calm - N/A   Clear
8:30 AM 23.7 °F - 19.2 °F 83% 30.56 in 10.0 mi Calm Calm - N/A   Clear
8:55 AM 25.0 °F - 20.3 °F 82% 30.57 in 10.0 mi Calm Calm - N/A   Clear
9:55 AM 28.4 °F 24.6 °F 21.9 °F 77% 30.57 in 10.0 mi WSW 3.5 mph - N/A   Clear
10:10 AM 28.9 °F - 22.3 °F 76% 30.57 in 10.0 mi Calm Calm - N/A   Clear
10:50 AM 30.7 °F 27.3 °F 22.6 °F 72% 30.57 in 10.0 mi South 3.5 mph - N/A   Clear
11:55 AM 33.1 °F 27.7 °F 24.4 °F 71% 30.54 in 10.0 mi South 5.8 mph - N/A   Clear
12:15 PM - - - N/A% - - North - - N/A   Unknown
12:35 PM 34.3 °F 27.0 °F 25.3 °F 70% 30.50 in 10.0 mi SSW 9.2 mph - 0.05 in   Clear
12:55 PM 34.7 °F 29.6 °F 26.1 °F 71% 30.48 in 10.0 mi South 5.8 mph - 0.05 in   Clear
1:15 PM 35.1 °F 28.6 °F 26.4 °F 71% 30.47 in 10.0 mi South 8.1 mph - N/A   Clear
1:35 PM 35.1 °F 29.3 °F 26.6 °F 71% 30.45 in 10.0 mi South 6.9 mph - N/A   Clear
1:55 PM 36.1 °F 30.6 °F 27.1 °F 70% 30.43 in 10.0 mi South 6.9 mph - N/A   Clear
2:15 PM 37.6 °F 30.0 °F 27.7 °F 67% 30.42 in 10.0 mi SSW 11.5 mph - N/A   Clear
2:35 PM 38.3 °F 30.9 °F 28.0 °F 67% 30.41 in 10.0 mi South 11.5 mph - N/A   Clear
2:55 PM 38.3 °F 31.4 °F 27.7 °F 66% 30.40 in 10.0 mi South 10.4 mph - N/A   Clear
3:15 PM 38.3 °F 31.4 °F 28.2 °F 67% 30.39 in 10.0 mi South 10.4 mph - N/A   Clear
3:35 PM 38.3 °F 32.5 °F 28.6 °F 68% 30.38 in 10.0 mi South 8.1 mph - N/A   Clear
3:55 PM 38.5 °F 32.7 °F 28.8 °F 68% 30.37 in 10.0 mi South 8.1 mph - N/A   Clear
4:15 PM 38.8 °F 33.8 °F 28.8 °F 67% 30.36 in 10.0 mi South 6.9 mph - N/A   Clear
4:35 PM 38.7 °F 33.6 °F 29.5 °F 70% 30.36 in 10.0 mi South 6.9 mph - N/A   Clear
4:55 PM 38.7 °F 32.9 °F 29.3 °F 69% 30.34 in 10.0 mi South 8.1 mph - N/A   Clear
5:15 PM 38.3 °F 32.5 °F 29.3 °F 70% 30.33 in 10.0 mi South 8.1 mph - N/A   Clear
5:35 PM 37.9 °F 32.1 °F 29.3 °F 71% 30.33 in 10.0 mi South 8.1 mph - N/A   Clear
5:55 PM 37.8 °F 32.5 °F 29.5 °F 72% 30.33 in 10.0 mi SSE 6.9 mph - N/A   Clear
6:20 PM 37.6 °F 32.3 °F 30.2 °F 75% 30.31 in 10.0 mi SE 6.9 mph - N/A   Clear
6:35 PM 37.4 °F 32.1 °F 30.2 °F 75% 30.31 in 10.0 mi SE 6.9 mph - N/A   Clear
6:55 PM 37.6 °F 31.6 °F 30.2 °F 75% 30.31 in 10.0 mi SSE 8.1 mph - N/A   Clear
7:15 PM 38.3 °F 32.5 °F 30.2 °F 73% 30.31 in 10.0 mi SSE 8.1 mph - N/A   Clear
7:35 PM 39.2 °F 32.5 °F 30.2 °F 70% 30.30 in 10.0 mi SSE 10.4 mph - N/A   Clear
7:55 PM 39.6 °F 32.1 °F 30.2 °F 69% 30.29 in 10.0 mi SSE 12.7 mph - N/A   Clear
8:15 PM 38.8 °F 32.1 °F 30.9 °F 73% 30.28 in 10.0 mi SSE 10.4 mph - N/A   Drizzle
8:35 PM 38.1 °F 31.2 °F 31.6 °F 77% 30.28 in 5.0 mi SSE 10.4 mph - N/A Rain Light Rain
8:55 PM 37.8 °F 30.2 °F 32.0 °F 80% 30.26 in 7.0 mi SSE 11.5 mph - N/A Rain Light Rain
9:15 PM 37.4 °F 30.8 °F 32.0 °F 81% 30.25 in 7.0 mi SSE 9.2 mph - N/A   Clear
9:35 PM 37.4 °F 32.1 °F 32.0 °F 81% 30.24 in 7.0 mi SSE 6.9 mph - N/A Rain Light Rain
9:55 PM 37.8 °F 31.3 °F 32.2 °F 80% 30.25 in 5.0 mi South 9.2 mph - N/A Rain Light Rain
10:15 PM 38.3 °F 31.9 °F 32.2 °F 79% 30.24 in 7.0 mi South 9.2 mph - N/A   Clear
10:35 PM 37.9 °F 32.1 °F 32.5 °F 81% 30.23 in 7.0 mi South 8.1 mph - N/A   Clear
10:55 PM 38.3 °F 31.4 °F 32.9 °F 81% 30.22 in 7.0 mi SSE 10.4 mph - N/A   Clear
11:15 PM 38.5 °F 32.1 °F 32.9 °F 80% 30.21 in 7.0 mi SSE 9.2 mph - N/A   Clear
11:35 PM 37.9 °F 32.7 °F 32.9 °F 82% 30.21 in 7.0 mi SSE 6.9 mph - N/A   Clear
11:55 PM 37.6 °F 31.0 °F 32.9 °F 83% 30.21 in 5.0 mi SSE 9.2 mph - N/A   Haze